Time,TemperatureF,DewpointF,PressureIn,WindDirection,WindDirectionDegrees,WindSpeedMPH,WindSpeedGustMPH,Humidity,HourlyPrecipIn,Conditions,Clouds,dailyrainin,SoftwareType,DateUTC
2013-08-18 00:00:00,64.4,55.2,30.22,East,95,2.0,5.0,72,0.00,,---,0.00,VWS V14.00,2013-08-18 04:00:00,
2013-08-18 00:02:00,64.7,55.5,30.22,East,95,1.0,4.0,72,0.00,,---,0.00,VWS V14.00,2013-08-18 04:02:00,
2013-08-18 00:08:00,64.6,55.4,30.22,East,95,1.0,4.0,72,0.00,,---,0.00,VWS V14.00,2013-08-18 04:08:00,
2013-08-18 00:13:00,64.5,55.7,30.22,East,95,2.0,5.0,73,0.00,,---,0.00,VWS V14.00,2013-08-18 04:13:00,
2013-08-18 00:18:00,64.4,55.6,30.22,East,95,4.0,5.0,73,0.00,,---,0.00,VWS V14.00,2013-08-18 04:18:00,
2013-08-18 00:23:00,64.3,55.8,30.22,East,95,4.0,5.0,74,0.00,,---,0.00,VWS V14.00,2013-08-18 04:23:00,
2013-08-18 00:28:00,64.2,55.8,30.22,East,96,2.0,4.0,74,0.00,,---,0.00,VWS V14.00,2013-08-18 04:28:00,
2013-08-18 00:30:00,64.2,55.8,30.22,East,95,1.0,5.0,74,0.00,,---,0.00,VWS V14.00,2013-08-18 04:30:00,
2013-08-18 00:33:00,64.0,55.9,30.22,East,95,2.0,4.0,75,0.00,,---,0.00,VWS V14.00,2013-08-18 04:33:00,
2013-08-18 00:38:00,63.8,56.1,30.22,East,95,1.0,4.0,76,0.00,,---,0.00,VWS V14.00,2013-08-18 04:38:00,
2013-08-18 00:43:00,63.7,56.0,30.22,East,96,4.0,5.0,76,0.00,,---,0.00,VWS V14.00,2013-08-18 04:43:00,
2013-08-18 00:48:00,63.6,56.3,30.22,East,96,2.0,5.0,77,0.00,,---,0.00,VWS V14.00,2013-08-18 04:48:00,
2013-08-18 00:53:00,63.6,56.3,30.22,East,95,2.0,5.0,77,0.00,,---,0.00,VWS V14.00,2013-08-18 04:53:00,
2013-08-18 00:58:00,63.4,56.4,30.21,East,96,2.0,4.0,78,0.00,,---,0.00,VWS V14.00,2013-08-18 04:58:00,
2013-08-18 01:00:00,63.4,56.1,30.21,East,95,2.0,5.0,77,0.00,,---,0.00,VWS V14.00,2013-08-18 05:00:00,
2013-08-18 01:03:00,63.3,56.3,30.22,East,96,0.0,5.0,78,0.00,,---,0.00,VWS V14.00,2013-08-18 05:03:00,
2013-08-18 01:08:00,63.1,56.1,30.21,East,95,1.0,5.0,78,0.00,,---,0.00,VWS V14.00,2013-08-18 05:08:00,
2013-08-18 01:13:00,62.8,56.2,30.21,East,96,0.0,5.0,79,0.00,,---,0.00,VWS V14.00,2013-08-18 05:13:00,
2013-08-18 01:18:00,62.6,56.3,30.22,East,95,0.0,5.0,80,0.00,,---,0.00,VWS V14.00,2013-08-18 05:18:00,
2013-08-18 01:23:00,62.5,56.2,30.22,East,96,0.0,5.0,80,0.00,,---,0.00,VWS V14.00,2013-08-18 05:23:00,
2013-08-18 01:28:00,62.3,56.1,30.22,East,96,0.0,0.0,80,0.00,,---,0.00,VWS V14.00,2013-08-18 05:28:00,
2013-08-18 01:30:00,62.3,56.1,30.22,East,96,0.0,5.0,80,0.00,,---,0.00,VWS V14.00,2013-08-18 05:30:00,
2013-08-18 01:33:00,62.2,56.3,30.22,East,96,0.0,0.0,81,0.00,,---,0.00,VWS V14.00,2013-08-18 05:33:00,
2013-08-18 01:38:00,61.9,56.0,30.22,East,95,0.0,0.0,81,0.00,,---,0.00,VWS V14.00,2013-08-18 05:38:00,
2013-08-18 01:43:00,61.6,56.1,30.22,East,95,0.0,0.0,82,0.00,,---,0.00,VWS V14.00,2013-08-18 05:43:00,
2013-08-18 01:48:00,61.2,55.7,30.22,East,95,0.0,0.0,82,0.00,,---,0.00,VWS V14.00,2013-08-18 05:48:00,
2013-08-18 01:53:00,60.8,55.6,30.22,East,95,0.0,0.0,83,0.00,,---,0.00,VWS V14.00,2013-08-18 05:53:00,
2013-08-18 01:58:00,60.6,55.4,30.21,East,96,0.0,0.0,83,0.00,,---,0.00,VWS V14.00,2013-08-18 05:58:00,
2013-08-18 02:00:00,60.6,55.4,30.22,East,95,0.0,0.0,83,0.00,,---,0.00,VWS V14.00,2013-08-18 06:00:00,
2013-08-18 02:03:00,60.4,55.5,30.22,East,95,0.0,1.0,84,0.00,,---,0.00,VWS V14.00,2013-08-18 06:03:00,
2013-08-18 02:08:00,60.1,55.6,30.22,East,96,0.0,1.0,85,0.00,,---,0.00,VWS V14.00,2013-08-18 06:08:00,
2013-08-18 02:13:00,59.8,55.3,30.22,East,96,0.0,1.0,85,0.00,,---,0.00,VWS V14.00,2013-08-18 06:13:00,
2013-08-18 02:18:00,59.6,55.4,30.22,East,95,0.0,1.0,86,0.00,,---,0.00,VWS V14.00,2013-08-18 06:18:00,
2013-08-18 02:23:00,59.4,55.2,30.22,East,95,0.0,1.0,86,0.00,,---,0.00,VWS V14.00,2013-08-18 06:23:00,
2013-08-18 02:28:00,59.3,55.1,30.22,East,95,0.0,0.0,86,0.00,,---,0.00,VWS V14.00,2013-08-18 06:28:00,
2013-08-18 02:30:00,59.3,55.1,30.22,East,96,0.0,1.0,86,0.00,,---,0.00,VWS V14.00,2013-08-18 06:30:00,
2013-08-18 02:33:00,59.1,54.9,30.22,East,95,0.0,0.0,86,0.00,,---,0.00,VWS V14.00,2013-08-18 06:33:00,
2013-08-18 02:38:00,59.0,55.1,30.22,East,96,0.0,0.0,87,0.00,,---,0.00,VWS V14.00,2013-08-18 06:38:00,
2013-08-18 02:43:00,58.9,55.0,30.22,East,95,0.0,0.0,87,0.00,,---,0.00,VWS V14.00,2013-08-18 06:43:00,
2013-08-18 02:48:00,59.0,55.1,30.22,East,95,0.0,0.0,87,0.00,,---,0.00,VWS V14.00,2013-08-18 06:48:00,
2013-08-18 02:53:00,58.9,55.0,30.22,East,95,0.0,0.0,87,0.00,,---,0.00,VWS V14.00,2013-08-18 06:53:00,
2013-08-18 02:58:00,58.7,54.8,30.22,East,96,0.0,0.0,87,0.00,,---,0.00,VWS V14.00,2013-08-18 06:58:00,
2013-08-18 03:00:00,58.7,54.8,30.22,East,95,0.0,0.0,87,0.00,,---,0.00,VWS V14.00,2013-08-18 07:00:00,
2013-08-18 03:03:00,58.5,54.7,30.22,East,95,0.0,0.0,87,0.00,,---,0.00,VWS V14.00,2013-08-18 07:03:00,
2013-08-18 03:08:00,58.1,54.3,30.22,East,95,0.0,0.0,87,0.00,,---,0.00,VWS V14.00,2013-08-18 07:08:00,
2013-08-18 03:13:00,57.7,53.9,30.22,East,95,0.0,0.0,87,0.00,,---,0.00,VWS V14.00,2013-08-18 07:13:00,
2013-08-18 03:18:00,57.4,53.9,30.22,East,95,0.0,0.0,88,0.00,,---,0.00,VWS V14.00,2013-08-18 07:18:00,
2013-08-18 03:23:00,57.2,54.0,30.22,East,96,0.0,0.0,89,0.00,,---,0.00,VWS V14.00,2013-08-18 07:23:00,
2013-08-18 03:28:00,57.2,54.3,30.22,East,95,0.0,0.0,90,0.00,,---,0.00,VWS V14.00,2013-08-18 07:28:00,
2013-08-18 03:30:00,57.2,54.3,30.22,East,96,0.0,0.0,90,0.00,,---,0.00,VWS V14.00,2013-08-18 07:30:00,
2013-08-18 03:33:00,57.3,54.4,30.22,East,96,0.0,0.0,90,0.00,,---,0.00,VWS V14.00,2013-08-18 07:33:00,
2013-08-18 03:38:00,57.3,54.4,30.22,East,96,0.0,0.0,90,0.00,,---,0.00,VWS V14.00,2013-08-18 07:38:00,
2013-08-18 03:43:00,57.2,54.3,30.22,East,95,0.0,0.0,90,0.00,,---,0.00,VWS V14.00,2013-08-18 07:43:00,
2013-08-18 03:48:00,57.1,54.2,30.22,East,95,0.0,0.0,90,0.00,,---,0.00,VWS V14.00,2013-08-18 07:48:00,
2013-08-18 03:53:00,57.0,54.1,30.22,East,95,0.0,0.0,90,0.00,,---,0.00,VWS V14.00,2013-08-18 07:53:00,
2013-08-18 03:58:00,57.1,54.5,30.22,East,96,0.0,0.0,91,0.00,,---,0.00,VWS V14.00,2013-08-18 07:58:00,
2013-08-18 04:00:00,57.0,54.1,30.22,East,96,0.0,0.0,90,0.00,,---,0.00,VWS V14.00,2013-08-18 08:00:00,
2013-08-18 04:03:00,57.2,54.6,30.22,East,96,0.0,1.0,91,0.00,,---,0.00,VWS V14.00,2013-08-18 08:03:00,
2013-08-18 04:08:00,57.4,54.8,30.22,East,95,0.0,1.0,91,0.00,,---,0.00,VWS V14.00,2013-08-18 08:08:00,
2013-08-18 04:13:00,57.4,54.8,30.22,East,95,0.0,1.0,91,0.00,,---,0.00,VWS V14.00,2013-08-18 08:13:00,
2013-08-18 04:18:00,57.2,54.6,30.22,East,96,0.0,1.0,91,0.00,,---,0.00,VWS V14.00,2013-08-18 08:18:00,
2013-08-18 04:23:00,57.1,54.5,30.22,East,95,0.0,1.0,91,0.00,,---,0.00,VWS V14.00,2013-08-18 08:23:00,
2013-08-18 04:28:00,56.9,54.3,30.23,East,96,0.0,0.0,91,0.00,,---,0.00,VWS V14.00,2013-08-18 08:28:00,
2013-08-18 04:30:00,56.9,54.3,30.22,East,96,0.0,1.0,91,0.00,,---,0.00,VWS V14.00,2013-08-18 08:30:00,
2013-08-18 04:33:00,56.5,53.6,30.23,East,96,0.0,0.0,90,0.00,,---,0.00,VWS V14.00,2013-08-18 08:33:00,
2013-08-18 04:38:00,56.3,53.7,30.23,East,96,0.0,0.0,91,0.00,,---,0.00,VWS V14.00,2013-08-18 08:38:00,
2013-08-18 04:43:00,56.0,53.4,30.23,East,95,0.0,0.0,91,0.00,,---,0.00,VWS V14.00,2013-08-18 08:43:00,
2013-08-18 04:48:00,55.9,53.6,30.23,East,96,0.0,0.0,92,0.00,,---,0.00,VWS V14.00,2013-08-18 08:48:00,
2013-08-18 04:53:00,55.8,53.5,30.23,East,95,0.0,0.0,92,0.00,,---,0.00,VWS V14.00,2013-08-18 08:53:00,
2013-08-18 04:58:00,55.4,53.1,30.23,East,95,0.0,0.0,92,0.00,,---,0.00,VWS V14.00,2013-08-18 08:58:00,
2013-08-18 05:00:00,55.6,53.3,30.23,East,96,0.0,0.0,92,0.00,,---,0.00,VWS V14.00,2013-08-18 09:00:00,
2013-08-18 05:03:00,55.1,52.5,30.23,East,95,0.0,0.0,91,0.00,,---,0.00,VWS V14.00,2013-08-18 09:03:00,
2013-08-18 05:08:00,54.8,52.5,30.23,East,95,0.0,0.0,92,0.00,,---,0.00,VWS V14.00,2013-08-18 09:08:00,
2013-08-18 05:13:00,54.7,52.1,30.23,East,95,0.0,0.0,91,0.00,,---,0.00,VWS V14.00,2013-08-18 09:13:00,
2013-08-18 05:18:00,54.6,52.3,30.23,East,96,0.0,0.0,92,0.00,,---,0.00,VWS V14.00,2013-08-18 09:18:00,
2013-08-18 05:23:00,54.7,52.4,30.23,East,95,0.0,0.0,92,0.00,,---,0.00,VWS V14.00,2013-08-18 09:23:00,
2013-08-18 05:28:00,54.6,52.3,30.23,East,95,0.0,0.0,92,0.00,,---,0.00,VWS V14.00,2013-08-18 09:28:00,
2013-08-18 05:30:00,54.7,52.4,30.23,East,95,0.0,0.0,92,0.00,,---,0.00,VWS V14.00,2013-08-18 09:30:00,
2013-08-18 05:33:00,54.5,52.2,30.23,East,96,0.0,0.0,92,0.00,,---,0.00,VWS V14.00,2013-08-18 09:33:00,
2013-08-18 05:38:00,54.4,52.4,30.23,East,95,0.0,0.0,93,0.00,,---,0.00,VWS V14.00,2013-08-18 09:38:00,
2013-08-18 05:43:00,54.5,52.5,30.23,East,96,0.0,0.0,93,0.00,,---,0.00,VWS V14.00,2013-08-18 09:43:00,
2013-08-18 05:48:00,54.5,52.5,30.23,East,95,0.0,0.0,93,0.00,,---,0.00,VWS V14.00,2013-08-18 09:48:00,
2013-08-18 05:53:00,54.4,52.4,30.23,East,95,0.0,0.0,93,0.00,,---,0.00,VWS V14.00,2013-08-18 09:53:00,
2013-08-18 05:58:00,54.3,52.3,30.23,East,96,0.0,0.0,93,0.00,,---,0.00,VWS V14.00,2013-08-18 09:58:00,
2013-08-18 06:00:00,54.3,52.3,30.23,East,95,0.0,0.0,93,0.00,,---,0.00,VWS V14.00,2013-08-18 10:00:00,
2013-08-18 06:03:00,54.2,52.2,30.23,East,96,0.0,1.0,93,0.00,,---,0.00,VWS V14.00,2013-08-18 10:03:00,
2013-08-18 06:08:00,54.1,52.1,30.24,East,96,0.0,1.0,93,0.00,,---,0.00,VWS V14.00,2013-08-18 10:08:00,
2013-08-18 06:13:00,53.9,51.9,30.24,East,96,0.0,1.0,93,0.00,,---,0.00,VWS V14.00,2013-08-18 10:13:00,
2013-08-18 06:18:00,53.7,51.7,30.24,East,95,0.0,1.0,93,0.00,,---,0.00,VWS V14.00,2013-08-18 10:18:00,
2013-08-18 06:24:00,53.8,52.1,30.24,East,96,0.0,1.0,94,0.00,,---,0.00,VWS V14.00,2013-08-18 10:24:00,
2013-08-18 06:29:00,53.8,51.8,30.24,East,95,0.0,1.0,93,0.00,,---,0.00,VWS V14.00,2013-08-18 10:29:00,
2013-08-18 06:30:00,53.8,51.8,30.24,East,96,0.0,1.0,93,0.00,,---,0.00,VWS V14.00,2013-08-18 10:30:00,
2013-08-18 06:34:00,53.6,51.6,30.24,East,95,0.0,1.0,93,0.00,,---,0.00,VWS V14.00,2013-08-18 10:34:00,
2013-08-18 06:39:00,53.3,51.3,30.24,East,96,0.0,1.0,93,0.00,,---,0.00,VWS V14.00,2013-08-18 10:39:00,
2013-08-18 06:44:00,53.2,51.2,30.24,East,95,0.0,1.0,93,0.00,,---,0.00,VWS V14.00,2013-08-18 10:44:00,
2013-08-18 06:49:00,53.0,51.0,30.24,East,95,0.0,1.0,93,0.00,,---,0.00,VWS V14.00,2013-08-18 10:49:00,
2013-08-18 06:54:00,52.7,50.7,30.24,East,95,0.0,1.0,93,0.00,,---,0.00,VWS V14.00,2013-08-18 10:54:00,
2013-08-18 06:59:00,52.7,50.7,30.24,East,95,0.0,0.0,93,0.00,,---,0.00,VWS V14.00,2013-08-18 10:59:00,
2013-08-18 07:00:00,52.7,51.0,30.24,East,96,0.0,1.0,94,0.00,,---,0.00,VWS V14.00,2013-08-18 11:00:00,
2013-08-18 07:04:00,52.8,51.1,30.24,East,95,0.0,1.0,94,0.00,,---,0.00,VWS V14.00,2013-08-18 11:04:00,
2013-08-18 07:09:00,52.8,51.1,30.24,East,95,0.0,1.0,94,0.00,,---,0.00,VWS V14.00,2013-08-18 11:09:00,
2013-08-18 07:14:00,52.8,51.1,30.25,East,96,0.0,1.0,94,0.00,,---,0.00,VWS V14.00,2013-08-18 11:14:00,
2013-08-18 07:19:00,52.8,51.1,30.25,East,96,0.0,1.0,94,0.00,,---,0.00,VWS V14.00,2013-08-18 11:19:00,
2013-08-18 07:24:00,52.8,51.1,30.25,East,96,0.0,1.0,94,0.00,,---,0.00,VWS V14.00,2013-08-18 11:24:00,
2013-08-18 07:29:00,52.8,51.1,30.25,East,95,0.0,0.0,94,0.00,,---,0.00,VWS V14.00,2013-08-18 11:29:00,
2013-08-18 07:30:00,52.8,51.1,30.25,East,95,0.0,1.0,94,0.00,,---,0.00,VWS V14.00,2013-08-18 11:30:00,
2013-08-18 07:34:00,53.1,51.4,30.25,East,95,0.0,0.0,94,0.00,,---,0.00,VWS V14.00,2013-08-18 11:34:00,
2013-08-18 07:39:00,53.5,52.1,30.25,East,95,0.0,0.0,95,0.00,,---,0.00,VWS V14.00,2013-08-18 11:39:00,
2013-08-18 07:44:00,54.2,52.8,30.25,East,95,0.0,0.0,95,0.00,,---,0.00,VWS V14.00,2013-08-18 11:44:00,
2013-08-18 07:49:00,54.8,53.4,30.25,East,95,0.0,0.0,95,0.00,,---,0.00,VWS V14.00,2013-08-18 11:49:00,
2013-08-18 07:54:00,55.5,54.1,30.25,East,95,0.0,0.0,95,0.00,,---,0.00,VWS V14.00,2013-08-18 11:54:00,
2013-08-18 07:59:00,56.2,54.5,30.25,East,95,0.0,0.0,94,0.00,,---,0.00,VWS V14.00,2013-08-18 11:59:00,
2013-08-18 08:00:00,55.9,54.5,30.25,East,95,0.0,0.0,95,0.00,,---,0.00,VWS V14.00,2013-08-18 12:00:00,
2013-08-18 08:04:00,56.8,55.1,30.25,East,96,0.0,1.0,94,0.00,,---,0.00,VWS V14.00,2013-08-18 12:04:00,
2013-08-18 08:09:00,57.3,55.3,30.25,East,96,0.0,1.0,93,0.00,,---,0.00,VWS V14.00,2013-08-18 12:09:00,
2013-08-18 08:14:00,57.9,55.9,30.25,East,95,0.0,1.0,93,0.00,,---,0.00,VWS V14.00,2013-08-18 12:14:00,
2013-08-18 08:19:00,58.4,56.1,30.25,East,96,0.0,1.0,92,0.00,,---,0.00,VWS V14.00,2013-08-18 12:19:00,
2013-08-18 08:24:00,59.1,56.8,30.25,East,96,0.0,1.0,92,0.00,,---,0.00,VWS V14.00,2013-08-18 12:24:00,
2013-08-18 08:29:00,60.3,57.7,30.25,East,95,0.0,0.0,91,0.00,,---,0.00,VWS V14.00,2013-08-18 12:29:00,
2013-08-18 08:30:00,59.7,57.4,30.26,East,96,0.0,1.0,92,0.00,,---,0.00,VWS V14.00,2013-08-18 12:30:00,
2013-08-18 08:34:00,61.5,58.2,30.26,East,96,0.0,0.0,89,0.00,,---,0.00,VWS V14.00,2013-08-18 12:34:00,
2013-08-18 08:39:00,62.4,58.2,30.26,East,95,0.0,1.0,86,0.00,,---,0.00,VWS V14.00,2013-08-18 12:39:00,
2013-08-18 08:44:00,62.5,57.9,30.26,East,95,1.0,2.0,85,0.00,,---,0.00,VWS V14.00,2013-08-18 12:44:00,
2013-08-18 08:49:00,62.4,57.5,30.26,East,95,0.0,2.0,84,0.00,,---,0.00,VWS V14.00,2013-08-18 12:49:00,
2013-08-18 08:54:00,63.0,58.4,30.26,East,96,0.0,2.0,85,0.00,,---,0.00,VWS V14.00,2013-08-18 12:54:00,
2013-08-18 08:59:00,63.5,58.2,30.26,East,95,1.0,2.0,83,0.00,,---,0.00,VWS V14.00,2013-08-18 12:59:00,
2013-08-18 09:00:00,63.3,58.1,30.26,East,96,0.0,2.0,83,0.00,,---,0.00,VWS V14.00,2013-08-18 13:00:00,
2013-08-18 09:04:00,63.8,58.2,30.25,East,95,0.0,2.0,82,0.00,,---,0.00,VWS V14.00,2013-08-18 13:04:00,
2013-08-18 09:09:00,63.8,58.2,30.26,East,96,0.0,2.0,82,0.00,,---,0.00,VWS V14.00,2013-08-18 13:09:00,
2013-08-18 09:14:00,64.2,58.6,30.26,East,95,0.0,2.0,82,0.00,,---,0.00,VWS V14.00,2013-08-18 13:14:00,
2013-08-18 09:19:00,64.8,58.8,30.26,East,96,1.0,4.0,81,0.00,,---,0.00,VWS V14.00,2013-08-18 13:19:00,
2013-08-18 09:24:00,65.6,59.3,30.26,East,96,0.0,4.0,80,0.00,,---,0.00,VWS V14.00,2013-08-18 13:24:00,
2013-08-18 09:29:00,66.5,59.8,30.25,East,95,0.0,1.0,79,0.00,,---,0.00,VWS V14.00,2013-08-18 13:29:00,
2013-08-18 09:30:00,66.0,59.3,30.26,East,95,0.0,4.0,79,0.00,,---,0.00,VWS V14.00,2013-08-18 13:30:00,
2013-08-18 09:34:00,67.2,60.1,30.25,East,95,0.0,2.0,78,0.00,,---,0.00,VWS V14.00,2013-08-18 13:34:00,
2013-08-18 09:39:00,67.9,60.4,30.25,East,95,0.0,2.0,77,0.00,,---,0.00,VWS V14.00,2013-08-18 13:39:00,
2013-08-18 09:44:00,68.9,60.7,30.25,East,95,1.0,2.0,75,0.00,,---,0.00,VWS V14.00,2013-08-18 13:44:00,
2013-08-18 09:49:00,69.7,61.0,30.25,East,95,0.0,2.0,74,0.00,,---,0.00,VWS V14.00,2013-08-18 13:49:00,
2013-08-18 09:54:00,70.4,61.0,30.25,East,96,0.0,2.0,72,0.00,,---,0.00,VWS V14.00,2013-08-18 13:54:00,
2013-08-18 09:59:00,70.4,61.3,30.25,East,96,0.0,1.0,73,0.00,,---,0.00,VWS V14.00,2013-08-18 13:59:00,
2013-08-18 10:00:00,70.3,60.9,30.25,East,95,0.0,2.0,72,0.00,,---,0.00,VWS V14.00,2013-08-18 14:00:00,
2013-08-18 10:04:00,71.2,60.9,30.25,East,96,0.0,2.0,70,0.00,,---,0.00,VWS V14.00,2013-08-18 14:04:00,
2013-08-18 10:09:00,71.6,60.5,30.25,East,96,0.0,2.0,68,0.00,,---,0.00,VWS V14.00,2013-08-18 14:09:00,
2013-08-18 10:14:00,72.2,61.5,30.25,East,95,4.0,4.0,69,0.00,,---,0.00,VWS V14.00,2013-08-18 14:14:00,
2013-08-18 10:19:00,72.8,60.8,30.25,East,96,1.0,4.0,66,0.00,,---,0.00,VWS V14.00,2013-08-18 14:19:00,
2013-08-18 10:24:00,73.3,61.3,30.25,East,95,0.0,4.0,66,0.00,,---,0.00,VWS V14.00,2013-08-18 14:24:00,
2013-08-18 10:29:00,73.8,60.9,30.25,East,95,2.0,2.0,64,0.00,,---,0.00,VWS V14.00,2013-08-18 14:29:00,
2013-08-18 10:30:00,73.7,60.8,30.25,East,95,0.0,4.0,64,0.00,,---,0.00,VWS V14.00,2013-08-18 14:30:00,
2013-08-18 10:34:00,74.0,60.6,30.25,East,96,0.0,2.0,63,0.00,,---,0.00,VWS V14.00,2013-08-18 14:34:00,
2013-08-18 10:39:00,74.3,60.5,30.25,East,96,0.0,2.0,62,0.00,,---,0.00,VWS V14.00,2013-08-18 14:39:00,
2013-08-18 10:44:00,75.4,61.0,30.25,East,95,0.0,2.0,61,0.00,,---,0.00,VWS V14.00,2013-08-18 14:44:00,
2013-08-18 10:49:00,76.2,61.3,30.25,ESE,121,0.0,5.0,60,0.00,,---,0.00,VWS V14.00,2013-08-18 14:49:00,
2013-08-18 10:54:00,76.0,60.7,30.24,SE,138,0.0,5.0,59,0.00,,---,0.00,VWS V14.00,2013-08-18 14:54:00,
2013-08-18 10:59:00,76.6,60.7,30.24,SE,138,0.0,1.0,58,0.00,,---,0.00,VWS V14.00,2013-08-18 14:59:00,
2013-08-18 11:00:00,76.2,60.8,30.24,SE,138,0.0,5.0,59,0.00,,---,0.00,VWS V14.00,2013-08-18 15:00:00,
2013-08-18 11:04:00,77.5,60.6,30.24,SE,140,4.0,5.0,56,0.00,,---,0.00,VWS V14.00,2013-08-18 15:04:00,
2013-08-18 11:09:00,77.2,60.3,30.24,SE,138,2.0,6.0,56,0.00,,---,0.00,VWS V14.00,2013-08-18 15:09:00,
2013-08-18 11:14:00,76.9,59.0,30.24,ESE,113,1.0,6.0,54,0.00,,---,0.00,VWS V14.00,2013-08-18 15:14:00,
2013-08-18 11:19:00,76.8,59.4,30.24,ESE,119,4.0,6.0,55,0.00,,---,0.00,VWS V14.00,2013-08-18 15:19:00,
2013-08-18 11:24:00,76.6,59.2,30.24,SSE,168,0.0,6.0,55,0.00,,---,0.00,VWS V14.00,2013-08-18 15:24:00,
2013-08-18 11:29:00,76.7,58.8,30.24,SSE,168,0.0,4.0,54,0.00,,---,0.00,VWS V14.00,2013-08-18 15:29:00,
2013-08-18 11:30:00,76.6,59.2,30.24,South,169,0.0,6.0,55,0.00,,---,0.00,VWS V14.00,2013-08-18 15:30:00,
2013-08-18 11:34:00,76.9,58.5,30.24,SE,128,2.0,5.0,53,0.00,,---,0.00,VWS V14.00,2013-08-18 15:34:00,
2013-08-18 11:39:00,77.4,57.9,30.24,SE,128,0.0,6.0,51,0.00,,---,0.00,VWS V14.00,2013-08-18 15:39:00,
2013-08-18 11:44:00,77.6,57.0,30.24,SE,128,0.0,6.0,49,0.00,,---,0.00,VWS V14.00,2013-08-18 15:44:00,
2013-08-18 11:49:00,78.2,58.1,30.23,SSE,153,2.0,7.0,50,0.00,,---,0.00,VWS V14.00,2013-08-18 15:49:00,
2013-08-18 11:54:00,78.0,57.9,30.23,SE,134,0.0,7.0,50,0.00,,---,0.00,VWS V14.00,2013-08-18 15:54:00,
2013-08-18 11:59:00,77.6,58.6,30.23,WSW,246,2.0,6.0,52,0.00,,---,0.00,VWS V14.00,2013-08-18 15:59:00,
2013-08-18 12:00:00,78.1,58.5,30.23,West,279,3.0,7.0,51,0.00,,---,0.00,VWS V14.00,2013-08-18 16:00:00,
2013-08-18 12:04:00,77.1,58.7,30.23,West,271,0.0,6.0,53,0.00,,---,0.00,VWS V14.00,2013-08-18 16:04:00,
2013-08-18 12:09:00,78.2,58.6,30.23,SSE,160,4.0,6.0,51,0.00,,---,0.00,VWS V14.00,2013-08-18 16:09:00,
2013-08-18 12:14:00,78.7,58.5,30.23,SE,129,0.0,6.0,50,0.00,,---,0.00,VWS V14.00,2013-08-18 16:14:00,
2013-08-18 12:19:00,78.8,58.0,30.23,East,94,7.0,7.0,49,0.00,,---,0.00,VWS V14.00,2013-08-18 16:19:00,
2013-08-18 12:24:00,78.3,57.0,30.23,East,91,2.0,8.0,48,0.00,,---,0.00,VWS V14.00,2013-08-18 16:24:00,
2013-08-18 12:29:00,78.4,57.7,30.22,East,85,3.0,7.0,49,0.00,,---,0.00,VWS V14.00,2013-08-18 16:29:00,
2013-08-18 12:30:00,78.2,57.5,30.22,East,92,1.0,8.0,49,0.00,,---,0.00,VWS V14.00,2013-08-18 16:30:00,
2013-08-18 12:34:00,78.3,57.0,30.22,ESE,103,4.0,8.0,48,0.00,,---,0.00,VWS V14.00,2013-08-18 16:34:00,
2013-08-18 12:39:00,78.6,56.7,30.22,ESE,105,0.0,8.0,47,0.00,,---,0.00,VWS V14.00,2013-08-18 16:39:00,
2013-08-18 12:44:00,79.2,56.7,30.22,East,98,1.0,8.0,46,0.00,,---,0.00,VWS V14.00,2013-08-18 16:44:00,
2013-08-18 12:49:00,78.7,57.4,30.22,East,90,6.0,8.0,48,0.00,,---,0.00,VWS V14.00,2013-08-18 16:49:00,
2013-08-18 12:54:00,78.5,56.6,30.22,ESE,107,0.0,8.0,47,0.00,,---,0.00,VWS V14.00,2013-08-18 16:54:00,
2013-08-18 12:59:00,78.8,56.3,30.22,East,98,0.0,5.0,46,0.00,,---,0.00,VWS V14.00,2013-08-18 16:59:00,
2013-08-18 13:00:00,78.6,56.1,30.22,ESE,104,4.0,8.0,46,0.00,,---,0.00,VWS V14.00,2013-08-18 17:00:00,
2013-08-18 13:04:00,79.4,56.2,30.21,NNE,31,0.0,5.0,45,0.00,,---,0.00,VWS V14.00,2013-08-18 17:04:00,
2013-08-18 13:09:00,80.0,56.2,30.21,SW,219,3.0,5.0,44,0.00,,---,0.00,VWS V14.00,2013-08-18 17:09:00,
2013-08-18 13:14:00,80.5,56.6,30.21,SW,219,1.0,5.0,44,0.00,,---,0.00,VWS V14.00,2013-08-18 17:14:00,
2013-08-18 13:19:00,80.7,56.8,30.21,East,90,5.0,8.0,44,0.00,,---,0.00,VWS V14.00,2013-08-18 17:19:00,
2013-08-18 13:24:00,79.4,56.2,30.21,East,94,2.0,11.0,45,0.00,,---,0.00,VWS V14.00,2013-08-18 17:24:00,
2013-08-18 13:30:00,79.3,56.1,30.21,SE,130,5.0,10.0,45,0.00,,---,0.00,VWS V14.00,2013-08-18 17:30:00,
2013-08-18 13:35:00,78.9,56.4,30.21,SSW,195,4.0,10.0,46,0.00,,---,0.00,VWS V14.00,2013-08-18 17:35:00,
2013-08-18 13:40:00,79.0,56.5,30.21,SE,132,6.0,10.0,46,0.00,,---,0.00,VWS V14.00,2013-08-18 17:40:00,
2013-08-18 13:45:00,78.9,55.8,30.20,East,88,5.0,10.0,45,0.00,,---,0.00,VWS V14.00,2013-08-18 17:45:00,
2013-08-18 13:50:00,78.8,56.9,30.20,East,98,2.0,10.0,47,0.00,,---,0.00,VWS V14.00,2013-08-18 17:50:00,
2013-08-18 13:55:00,79.1,55.3,30.20,ENE,71,1.0,10.0,44,0.00,,---,0.00,VWS V14.00,2013-08-18 17:55:00,
2013-08-18 14:00:00,79.5,56.3,30.20,SE,136,4.0,8.0,45,0.00,,---,0.00,VWS V14.00,2013-08-18 18:00:00,
2013-08-18 14:05:00,79.4,57.4,30.20,East,91,5.0,9.0,47,0.00,,---,0.00,VWS V14.00,2013-08-18 18:05:00,
2013-08-18 14:10:00,79.2,56.7,30.20,ESE,105,2.0,12.0,46,0.00,,---,0.00,VWS V14.00,2013-08-18 18:10:00,
2013-08-18 14:15:00,79.2,55.4,30.19,SE,130,8.0,12.0,44,0.00,,---,0.00,VWS V14.00,2013-08-18 18:15:00,
2013-08-18 14:20:00,79.1,54.7,30.19,East,92,2.0,12.0,43,0.00,,---,0.00,VWS V14.00,2013-08-18 18:20:00,
2013-08-18 14:25:00,79.4,56.8,30.19,ESE,105,5.0,12.0,46,0.00,,---,0.00,VWS V14.00,2013-08-18 18:25:00,
2013-08-18 14:30:00,79.5,58.1,30.19,SSE,154,6.0,9.0,48,0.00,,---,0.00,VWS V14.00,2013-08-18 18:30:00,
2013-08-18 14:35:00,79.4,56.8,30.19,SSE,163,0.0,10.0,46,0.00,,---,0.00,VWS V14.00,2013-08-18 18:35:00,
2013-08-18 14:40:00,80.0,56.8,30.19,SW,235,1.0,10.0,45,0.00,,---,0.00,VWS V14.00,2013-08-18 18:40:00,
2013-08-18 14:45:00,80.7,56.8,30.19,SW,234,1.0,10.0,44,0.00,,---,0.00,VWS V14.00,2013-08-18 18:45:00,
2013-08-18 14:50:00,80.7,56.2,30.19,ESE,110,2.0,10.0,43,0.00,,---,0.00,VWS V14.00,2013-08-18 18:50:00,
2013-08-18 14:55:00,79.8,57.2,30.19,SE,134,7.0,11.0,46,0.00,,---,0.00,VWS V14.00,2013-08-18 18:55:00,
2013-08-18 15:00:00,79.8,57.2,30.18,SW,214,2.0,8.0,46,0.00,,---,0.00,VWS V14.00,2013-08-18 19:00:00,
2013-08-18 15:05:00,80.3,56.4,30.18,ESE,121,0.0,8.0,44,0.00,,---,0.00,VWS V14.00,2013-08-18 19:05:00,
2013-08-18 15:10:00,80.8,56.9,30.18,East,100,4.0,8.0,44,0.00,,---,0.00,VWS V14.00,2013-08-18 19:10:00,
2013-08-18 15:15:00,81.2,56.6,30.18,NNE,31,0.0,8.0,43,0.00,,---,0.00,VWS V14.00,2013-08-18 19:15:00,
2013-08-18 15:20:00,81.6,56.3,30.18,NE,34,2.0,8.0,42,0.00,,---,0.00,VWS V14.00,2013-08-18 19:20:00,
2013-08-18 15:25:00,81.7,56.4,30.18,NE,34,0.0,8.0,42,0.00,,---,0.00,VWS V14.00,2013-08-18 19:25:00,
2013-08-18 15:30:00,81.3,56.0,30.18,ESE,112,4.0,7.0,42,0.00,,---,0.00,VWS V14.00,2013-08-18 19:30:00,
2013-08-18 15:35:00,81.0,55.8,30.17,East,98,5.0,7.0,42,0.00,,---,0.00,VWS V14.00,2013-08-18 19:35:00,
2013-08-18 15:40:00,80.6,54.8,30.17,ESE,115,0.0,9.0,41,0.00,,---,0.00,VWS V14.00,2013-08-18 19:40:00,
2013-08-18 15:45:00,80.8,54.2,30.17,ESE,115,1.0,9.0,40,0.00,,---,0.00,VWS V14.00,2013-08-18 19:45:00,
2013-08-18 15:50:00,80.5,54.0,30.17,East,90,2.0,9.0,40,0.00,,---,0.00,VWS V14.00,2013-08-18 19:50:00,
2013-08-18 15:55:00,80.3,53.8,30.17,ESE,103,1.0,9.0,40,0.00,,---,0.00,VWS V14.00,2013-08-18 19:55:00,
2013-08-18 16:00:00,80.5,53.3,30.17,ESE,107,5.0,9.0,39,0.00,,---,0.00,VWS V14.00,2013-08-18 20:00:00,
2013-08-18 16:05:00,80.6,54.1,30.17,SSE,148,4.0,9.0,40,0.00,,---,0.00,VWS V14.00,2013-08-18 20:05:00,
2013-08-18 16:10:00,81.2,53.9,30.16,West,265,4.0,9.0,39,0.00,,---,0.00,VWS V14.00,2013-08-18 20:10:00,
2013-08-18 16:15:00,81.0,53.0,30.16,West,263,1.0,9.0,38,0.00,,---,0.00,VWS V14.00,2013-08-18 20:15:00,
2013-08-18 16:20:00,81.6,54.3,30.16,SSE,167,1.0,9.0,39,0.00,,---,0.00,VWS V14.00,2013-08-18 20:20:00,
2013-08-18 16:25:00,81.8,53.7,30.16,SSW,212,8.0,11.0,38,0.00,,---,0.00,VWS V14.00,2013-08-18 20:25:00,
2013-08-18 16:30:00,81.2,52.5,30.16,SW,215,2.0,8.0,37,0.00,,---,0.00,VWS V14.00,2013-08-18 20:30:00,
2013-08-18 16:35:00,81.3,52.6,30.16,SW,217,2.0,8.0,37,0.00,,---,0.00,VWS V14.00,2013-08-18 20:35:00,
2013-08-18 16:40:00,81.6,52.1,30.15,ESE,111,2.0,8.0,36,0.00,,---,0.00,VWS V14.00,2013-08-18 20:40:00,
2013-08-18 16:45:00,81.5,52.0,30.15,ESE,113,5.0,9.0,36,0.00,,---,0.00,VWS V14.00,2013-08-18 20:45:00,
2013-08-18 16:50:00,81.4,53.4,30.15,SE,140,2.0,9.0,38,0.00,,---,0.00,VWS V14.00,2013-08-18 20:50:00,
2013-08-18 16:55:00,81.5,53.5,30.15,SSW,198,0.0,9.0,38,0.00,,---,0.00,VWS V14.00,2013-08-18 20:55:00,
2013-08-18 17:00:00,81.7,53.7,30.15,ESE,123,4.0,9.0,38,0.00,,---,0.00,VWS V14.00,2013-08-18 21:00:00,
2013-08-18 17:05:00,81.6,54.3,30.15,SSE,151,6.0,9.0,39,0.00,,---,0.00,VWS V14.00,2013-08-18 21:05:00,
2013-08-18 17:10:00,81.8,54.5,30.15,SE,137,6.0,9.0,39,0.00,,---,0.00,VWS V14.00,2013-08-18 21:10:00,
2013-08-18 17:15:00,81.4,53.4,30.14,East,98,1.0,9.0,38,0.00,,---,0.00,VWS V14.00,2013-08-18 21:15:00,
2013-08-18 17:20:00,81.3,52.6,30.15,SSW,194,0.0,9.0,37,0.00,,---,0.00,VWS V14.00,2013-08-18 21:20:00,
2013-08-18 17:26:00,81.4,52.7,30.14,South,171,8.0,9.0,37,0.00,,---,0.00,VWS V14.00,2013-08-18 21:26:00,
2013-08-18 17:30:00,81.4,52.7,30.14,SSE,149,5.0,9.0,37,0.00,,---,0.00,VWS V14.00,2013-08-18 21:30:00,
2013-08-18 17:31:00,81.2,52.5,30.14,SE,136,2.0,8.0,37,0.00,,---,0.00,VWS V14.00,2013-08-18 21:31:00,
2013-08-18 17:36:00,81.3,52.6,30.14,SE,136,2.0,9.0,37,0.00,,---,0.00,VWS V14.00,2013-08-18 21:36:00,
2013-08-18 17:41:00,81.4,52.7,30.14,SW,214,5.0,9.0,37,0.00,,---,0.00,VWS V14.00,2013-08-18 21:41:00,
2013-08-18 17:46:00,81.4,52.7,30.14,SSE,161,5.0,9.0,37,0.00,,---,0.00,VWS V14.00,2013-08-18 21:46:00,
2013-08-18 17:51:00,81.1,51.7,30.14,SSE,156,7.0,9.0,36,0.00,,---,0.00,VWS V14.00,2013-08-18 21:51:00,
2013-08-18 17:56:00,80.9,51.5,30.14,SSE,149,0.0,9.0,36,0.00,,---,0.00,VWS V14.00,2013-08-18 21:56:00,
2013-08-18 18:00:00,81.0,51.6,30.14,SSE,148,1.0,9.0,36,0.00,,---,0.00,VWS V14.00,2013-08-18 22:00:00,
2013-08-18 18:01:00,81.4,51.9,30.14,SSE,148,1.0,2.0,36,0.00,,---,0.00,VWS V14.00,2013-08-18 22:01:00,
2013-08-18 18:06:00,81.6,52.1,30.14,SSE,149,4.0,5.0,36,0.00,,---,0.00,VWS V14.00,2013-08-18 22:06:00,
2013-08-18 18:11:00,81.6,52.8,30.14,SSE,153,4.0,5.0,37,0.00,,---,0.00,VWS V14.00,2013-08-18 22:11:00,
2013-08-18 18:16:00,81.5,52.0,30.14,SSW,194,4.0,6.0,36,0.00,,---,0.00,VWS V14.00,2013-08-18 22:16:00,
2013-08-18 18:21:00,81.2,51.7,30.14,SSW,194,1.0,6.0,36,0.00,,---,0.00,VWS V14.00,2013-08-18 22:21:00,
2013-08-18 18:26:00,81.0,52.3,30.14,SSW,202,2.0,6.0,37,0.00,,---,0.00,VWS V14.00,2013-08-18 22:26:00,
2013-08-18 18:30:00,81.0,52.3,30.14,WSW,240,3.0,6.0,37,0.00,,---,0.00,VWS V14.00,2013-08-18 22:30:00,
2013-08-18 18:31:00,80.6,51.2,30.14,SW,223,4.0,7.0,36,0.00,,---,0.00,VWS V14.00,2013-08-18 22:31:00,
2013-08-18 18:36:00,80.5,51.1,30.14,SW,236,0.0,7.0,36,0.00,,---,0.00,VWS V14.00,2013-08-18 22:36:00,
2013-08-18 18:41:00,80.7,51.3,30.14,SW,233,0.0,7.0,36,0.00,,---,0.00,VWS V14.00,2013-08-18 22:41:00,
2013-08-18 18:46:00,81.2,51.7,30.13,SW,227,2.0,7.0,36,0.00,,---,0.00,VWS V14.00,2013-08-18 22:46:00,
2013-08-18 18:51:00,81.2,52.5,30.13,SW,236,4.0,7.0,37,0.00,,---,0.00,VWS V14.00,2013-08-18 22:51:00,
2013-08-18 18:56:00,81.0,53.0,30.13,WSW,246,2.0,7.0,38,0.00,,---,0.00,VWS V14.00,2013-08-18 22:56:00,
2013-08-18 19:00:00,80.9,52.9,30.13,WSW,247,0.0,7.0,38,0.00,,---,0.00,VWS V14.00,2013-08-18 23:00:00,
2013-08-18 19:01:00,80.6,52.7,30.13,WSW,242,2.0,4.0,38,0.00,,---,0.00,VWS V14.00,2013-08-18 23:01:00,
2013-08-18 19:06:00,80.5,52.6,30.13,WSW,242,1.0,4.0,38,0.00,,---,0.00,VWS V14.00,2013-08-18 23:06:00,
2013-08-18 19:11:00,80.6,52.0,30.13,WSW,242,0.0,4.0,37,0.00,,---,0.00,VWS V14.00,2013-08-18 23:11:00,
2013-08-18 19:16:00,81.0,53.7,30.13,WSW,242,2.0,4.0,39,0.00,,---,0.00,VWS V14.00,2013-08-18 23:16:00,
2013-08-18 19:21:00,80.7,54.8,30.13,SW,229,1.0,4.0,41,0.00,,---,0.00,VWS V14.00,2013-08-18 23:21:00,
2013-08-18 19:26:00,80.3,55.1,30.13,SW,227,1.0,4.0,42,0.00,,---,0.00,VWS V14.00,2013-08-18 23:26:00,
2013-08-18 19:30:00,80.3,55.8,30.13,SW,227,3.0,4.0,43,0.00,,---,0.00,VWS V14.00,2013-08-18 23:30:00,
2013-08-18 19:31:00,80.0,56.2,30.13,SW,227,2.0,3.0,44,0.00,,---,0.00,VWS V14.00,2013-08-18 23:31:00,
2013-08-18 19:36:00,79.5,56.3,30.13,SW,227,0.0,4.0,45,0.00,,---,0.00,VWS V14.00,2013-08-18 23:36:00,
2013-08-18 19:41:00,79.3,56.8,30.13,SW,227,0.0,4.0,46,0.00,,---,0.00,VWS V14.00,2013-08-18 23:41:00,
2013-08-18 19:46:00,79.0,57.1,30.13,SW,227,0.0,4.0,47,0.00,,---,0.00,VWS V14.00,2013-08-18 23:46:00,
2013-08-18 19:51:00,78.6,56.7,30.13,SW,227,0.0,4.0,47,0.00,,---,0.00,VWS V14.00,2013-08-18 23:51:00,
2013-08-18 19:56:00,78.4,57.1,30.13,SW,227,1.0,4.0,48,0.00,,---,0.00,VWS V14.00,2013-08-18 23:56:00,
2013-08-18 20:00:00,78.3,57.0,30.13,SW,227,0.0,4.0,48,0.00,,---,0.00,VWS V14.00,2013-08-19 00:00:00,
2013-08-18 20:01:00,78.1,56.8,30.13,SW,227,0.0,1.0,48,0.00,,---,0.00,VWS V14.00,2013-08-19 00:01:00,
2013-08-18 20:06:00,77.7,56.5,30.13,SW,227,0.0,1.0,48,0.00,,---,0.00,VWS V14.00,2013-08-19 00:06:00,
2013-08-18 20:11:00,77.1,57.0,30.12,SW,227,0.0,1.0,50,0.00,,---,0.00,VWS V14.00,2013-08-19 00:11:00,
2013-08-18 20:16:00,76.4,57.5,30.12,SW,227,0.0,1.0,52,0.00,,---,0.00,VWS V14.00,2013-08-19 00:16:00,
2013-08-18 20:21:00,75.7,57.9,30.12,SW,227,0.0,1.0,54,0.00,,---,0.00,VWS V14.00,2013-08-19 00:21:00,
2013-08-18 20:26:00,75.1,57.8,30.12,SW,227,0.0,1.0,55,0.00,,---,0.00,VWS V14.00,2013-08-19 00:26:00,
2013-08-18 20:30:00,75.0,57.8,30.12,SW,227,0.0,1.0,55,0.00,,---,0.00,VWS V14.00,2013-08-19 00:30:00,
2013-08-18 20:31:00,74.4,58.2,30.12,SW,227,0.0,0.0,57,0.00,,---,0.00,VWS V14.00,2013-08-19 00:31:00,
2013-08-18 20:36:00,73.7,58.0,30.13,SW,227,0.0,0.0,58,0.00,,---,0.00,VWS V14.00,2013-08-19 00:36:00,
2013-08-18 20:41:00,73.1,57.5,30.13,SW,227,0.0,0.0,58,0.00,,---,0.00,VWS V14.00,2013-08-19 00:41:00,
2013-08-18 20:46:00,72.5,57.4,30.13,SW,227,0.0,0.0,59,0.00,,---,0.00,VWS V14.00,2013-08-19 00:46:00,
2013-08-18 20:51:00,72.0,57.4,30.13,SW,227,0.0,0.0,60,0.00,,---,0.00,VWS V14.00,2013-08-19 00:51:00,
2013-08-18 20:56:00,71.5,57.8,30.13,SW,227,0.0,0.0,62,0.00,,---,0.00,VWS V14.00,2013-08-19 00:56:00,
2013-08-18 21:00:00,71.5,57.8,30.13,SW,227,0.0,0.0,62,0.00,,---,0.00,VWS V14.00,2013-08-19 01:00:00,
2013-08-18 21:02:00,71.1,57.9,30.13,SW,227,0.0,0.0,63,0.00,,---,0.00,VWS V14.00,2013-08-19 01:02:00,
2013-08-18 21:07:00,70.6,57.4,30.13,SW,227,0.0,0.0,63,0.00,,---,0.00,VWS V14.00,2013-08-19 01:07:00,
2013-08-18 21:12:00,70.3,57.6,30.13,SW,227,0.0,0.0,64,0.00,,---,0.00,VWS V14.00,2013-08-19 01:12:00,
2013-08-18 21:17:00,69.8,57.5,30.13,SW,227,0.0,0.0,65,0.00,,---,0.00,VWS V14.00,2013-08-19 01:17:00,
2013-08-18 21:22:00,69.3,57.0,30.13,SW,227,0.0,1.0,65,0.00,,---,0.00,VWS V14.00,2013-08-19 01:22:00,
2013-08-18 21:27:00,68.8,57.4,30.13,SW,227,0.0,1.0,67,0.00,,---,0.00,VWS V14.00,2013-08-19 01:27:00,
2013-08-18 21:30:00,68.8,57.4,30.13,SW,227,0.0,1.0,67,0.00,,---,0.00,VWS V14.00,2013-08-19 01:30:00,
2013-08-18 21:32:00,68.3,56.9,30.13,SW,227,0.0,0.0,67,0.00,,---,0.00,VWS V14.00,2013-08-19 01:32:00,
2013-08-18 21:37:00,67.9,56.5,30.13,SW,227,0.0,0.0,67,0.00,,---,0.00,VWS V14.00,2013-08-19 01:37:00,
2013-08-18 21:42:00,67.7,56.4,30.13,SW,227,0.0,0.0,67,0.00,,---,0.00,VWS V14.00,2013-08-19 01:42:00,
2013-08-18 21:47:00,67.5,56.6,30.13,SW,227,0.0,0.0,68,0.00,,---,0.00,VWS V14.00,2013-08-19 01:47:00,
2013-08-18 21:52:00,67.3,56.4,30.13,SW,227,0.0,0.0,68,0.00,,---,0.00,VWS V14.00,2013-08-19 01:52:00,
2013-08-18 21:57:00,67.1,56.6,30.13,SW,227,0.0,0.0,69,0.00,,---,0.00,VWS V14.00,2013-08-19 01:57:00,
2013-08-18 22:00:00,67.1,56.6,30.13,SW,227,0.0,0.0,69,0.00,,---,0.00,VWS V14.00,2013-08-19 02:00:00,
2013-08-18 22:02:00,66.9,56.4,30.13,SW,227,0.0,0.0,69,0.00,,---,0.00,VWS V14.00,2013-08-19 02:02:00,
2013-08-18 22:07:00,66.8,56.3,30.13,SW,227,0.0,0.0,69,0.00,,---,0.00,VWS V14.00,2013-08-19 02:07:00,
2013-08-18 22:12:00,66.8,56.3,30.13,SW,227,0.0,0.0,69,0.00,,---,0.00,VWS V14.00,2013-08-19 02:12:00,
2013-08-18 22:17:00,66.6,56.5,30.13,SW,227,0.0,0.0,70,0.00,,---,0.00,VWS V14.00,2013-08-19 02:17:00,
2013-08-18 22:22:00,66.4,56.3,30.13,SW,227,0.0,0.0,70,0.00,,---,0.00,VWS V14.00,2013-08-19 02:22:00,
2013-08-18 22:27:00,66.2,56.5,30.13,SW,227,0.0,0.0,71,0.00,,---,0.00,VWS V14.00,2013-08-19 02:27:00,
2013-08-18 22:30:00,66.2,56.5,30.13,SW,227,0.0,0.0,71,0.00,,---,0.00,VWS V14.00,2013-08-19 02:30:00,
2013-08-18 22:32:00,65.9,56.6,30.13,SW,227,0.0,0.0,72,0.00,,---,0.00,VWS V14.00,2013-08-19 02:32:00,
2013-08-18 22:37:00,65.6,56.7,30.13,SW,227,0.0,0.0,73,0.00,,---,0.00,VWS V14.00,2013-08-19 02:37:00,
2013-08-18 22:42:00,65.3,56.8,30.13,SW,227,0.0,1.0,74,0.00,,---,0.00,VWS V14.00,2013-08-19 02:42:00,
2013-08-18 22:47:00,64.9,56.4,30.13,SW,227,0.0,1.0,74,0.00,,---,0.00,VWS V14.00,2013-08-19 02:47:00,
2013-08-18 22:52:00,64.6,56.5,30.13,SW,227,0.0,1.0,75,0.00,,---,0.00,VWS V14.00,2013-08-19 02:52:00,
2013-08-18 22:57:00,64.4,56.3,30.12,SW,227,0.0,1.0,75,0.00,,---,0.00,VWS V14.00,2013-08-19 02:57:00,
2013-08-18 23:00:00,64.4,56.3,30.12,SW,227,0.0,1.0,75,0.00,,---,0.00,VWS V14.00,2013-08-19 03:00:00,
2013-08-18 23:02:00,64.3,56.6,30.12,SW,227,0.0,0.0,76,0.00,,---,0.00,VWS V14.00,2013-08-19 03:02:00,
2013-08-18 23:07:00,64.1,56.4,30.12,SW,227,0.0,1.0,76,0.00,,---,0.00,VWS V14.00,2013-08-19 03:07:00,
2013-08-18 23:12:00,64.0,56.7,30.12,SW,227,0.0,1.0,77,0.00,,---,0.00,VWS V14.00,2013-08-19 03:12:00,
2013-08-18 23:17:00,63.9,56.2,30.12,SW,227,0.0,1.0,76,0.00,,---,0.00,VWS V14.00,2013-08-19 03:17:00,
2013-08-18 23:22:00,63.8,56.1,30.12,SW,227,0.0,1.0,76,0.00,,---,0.00,VWS V14.00,2013-08-19 03:22:00,
2013-08-18 23:27:00,63.7,56.4,30.12,SW,227,0.0,0.0,77,0.00,,---,0.00,VWS V14.00,2013-08-19 03:27:00,
2013-08-18 23:30:00,63.7,56.4,30.12,SW,227,0.0,1.0,77,0.00,,---,0.00,VWS V14.00,2013-08-19 03:30:00,
2013-08-18 23:32:00,63.6,56.3,30.12,SW,227,0.0,0.0,77,0.00,,---,0.00,VWS V14.00,2013-08-19 03:32:00,
2013-08-18 23:37:00,63.5,56.2,30.12,SW,227,0.0,0.0,77,0.00,,---,0.00,VWS V14.00,2013-08-19 03:37:00,
2013-08-18 23:42:00,63.4,56.4,30.12,SW,227,0.0,0.0,78,0.00,,---,0.00,VWS V14.00,2013-08-19 03:42:00,
2013-08-18 23:47:00,63.2,56.2,30.12,SW,227,0.0,0.0,78,0.00,,---,0.00,VWS V14.00,2013-08-19 03:47:00,
2013-08-18 23:52:00,63.0,56.0,30.12,SW,227,0.0,0.0,78,0.00,,---,0.00,VWS V14.00,2013-08-19 03:52:00,
2013-08-18 23:57:00,62.7,56.1,30.12,SW,227,0.0,0.0,79,0.00,,---,0.00,VWS V14.00,2013-08-19 03:57:00,